Location: Unspecified
(51.3762°N, 0.0000°E)
Time: 11:29:05
(UTC+00:00)

Tiangong 2 - Pass Details

Date: 25 May 2019
Orbit: 376 x 389 km, 42.8° (Epoch: 18 June)

Event Time Altitude Azimuth Distance (km) Brightness Sun altitude
Rises 20:44:59 0° 248° (WSW) 2,237 5.3 -6.3°
Reaches altitude 10° 20:47:31 10° 227° (SW) 1,384 3.9 -6.6°
Maximum altitude 20:49:38 17° 184° (S) 1,048 2.9 -6.8°
Drops below altitude 10° 20:51:44 10° 141° (SE) 1,381 3.2 -7.0°
Enters shadow 20:51:50 10° 140° (SE) 1,412 3.2 -7.0°
